Location: Balsareny
(41.8670°N, 1.8830°E)
Time: 23:44:25
(UTC+01:00)

X-37B - Pass Details

Date: 09 December 2021
Orbit: 334 x 337 km, 45.0° (Epoch: 11 January)

Event Time Altitude Azimuth Distance (km) Brightness Sun altitude
Rises 18:52:11 0° 257° (WSW) 2,098 6.1 -16.3°
Reaches altitude 10° 18:54:12 10° 260° (W) 1,263 4.5 -16.7°
Maximum altitude 18:57:00 68° 344° (NNW) 363 0.3 -17.2°
Enters shadow 18:57:14 63° 19° (NNE) 375 0.3 -17.2°
